Weather in Bezobrazovo

Russia / Kaluga Oblast     54°49′30″N   37°07′16″E
temp.,
°C
wind,
m/s
gust,
m/s
humid.,
%
clouds,
%
prec.,
mm/h
press.,
hPa
HPBL,
m
25 july, sun
sun2500:00+15nnw115998 0.0 101817
03:00+12nnw116859 0.0 101910
06:00+13nw11676 0.0 102034
09:00+19n11464 0.0 1020570
12:00+23nne123344 0.0 10202412
15:00+24nne333281 0.0 10202424
18:00+22e224110 0.0 1021887
21:00+16sse236410 0.0 102231
26 july, mon
mon2600:00+16ssw2260100 0.0 102251
03:00+16s1160100 0.0 102318
06:00+17s3457100 0.0 102391
09:00+20ssw354997 0.0 1023327
12:00+22wsw2345100 0.0 1024600
15:00+25wsw133616 0.0 10231505
18:00+25wsw233869 0.0 10221610
21:00+18s005931 0.0 102311
27 july, tue
tue2700:00+16ssw11719 0.0 102311
03:00+15sw227944 0.0 102314
06:00+16wsw227521 0.0 102334
09:00+23wsw11515 0.0 1023486
12:00+27wsw233857 0.0 10222429
15:00+23w235596 0.0 1021136
18:00+26sw23415 0.0 1020819
21:00+20s226797 0.0 102013
28 july, wed
wed2800:00+17ssw347425 0.0 102056
03:00+16ssw2381100 0.0 101934
06:00+16ssw269077 0.8 1018139
09:00+22sw3670100 0.9 1017400
12:00+21ssw2565100 0.0 1016364
15:00+18ssw3992100 2.0 1015546
18:00+16sse61493100 1.3 1013592
21:00+17s51396100 2.1 1010552
29 july, thu
thu2900:00+17ssw51297100 2.0 1008481
03:00+18wsw4109887 2.6 1007451
06:00+18w4896100 0.1 1006534
09:00+18wnw5892100 0.3 1006588
12:00+22wnw566789 0.3 10061212
15:00+25nw484944 0.4 10061641
18:00+25w475795 0.0 10051106
21:00+19w3584100 0.1 100686